[[{"header":{"parameterUnit":"m.s-1","parameterCategory":2,"la1":30.2992,"la2":30.254,"lo1":-89.0895,"lo2":-89.0443,"dy":0.0025,"dx":0.0025,"nx":19,"ny":19,"refTime":"2026-04-02T21:00:00:Z","depth":"0","parameterNumber":2,"parameterNumberName":"U-component_of_CURRENTS"},"data":[0,0,0,-0.2126,-0.2128,-0.217,-0.217,-0.2128,-0.2128,0,0,0,0,0,0,0,0,0,0,0,-0.2102,-0.2102,-0.2126,-0.2128,-0.217,-0.217,-0.2128,-0.2128,0,0,0,0,0,0,0,0,0,0,0,-0.2101,-0.2102,-0.2103,-0.2128,-0.217,-0.217,-0.2128,-0.2112,0,0,0,0,0,0,0,0,0,0,-0.208,-0.2052,-0.2102,-0.2103,-0.2129,-0.217,-0.217,-0.2112,-0.2113,-0.2091,0,-0.2118,0,-0.2139,-0.2126,-0.2125,0,0,0,-0.2096,-0.2051,-0.2102,-0.2103,-0.213,-0.217,-0.2142,-0.2113,-0.2114,-0.2092,-0.2118,-0.2118,-0.2139,-0.2125,-0.2125,-0.2242,-0.2244,0,0,-0.2094,-0.2063,-0.2102,-0.2104,-0.2166,-0.2141,-0.2144,-0.2115,-0.2101,-0.2118,-0.2117,-0.2138,-0.2125,-0.2125,-0.2241,-0.2243,0,0,0,-0.2109,-0.2061,-0.2113,-0.2104,-0.213,-0.2143,-0.2146,-0.2101,-0.2131,-0.2117,-0.2137,-0.2125,-0.2125,-0.2239,-0.2242,-0.2285,0,0,0,-0.2106,-0.2074,-0.2113,-0.2088,-0.2132,-0.2123,-0.2132,-0.2132,-0.213,-0.2138,-0.2125,-0.2124,-0.2238,-0.2241,-0.228,-0.2263,0,0,0,-0.2095,-0.2071,-0.2094,-0.2088,-0.2127,-0.2125,-0.2149,-0.2132,-0.2144,-0.2125,-0.2124,-0.2236,-0.224,-0.2276,-0.2258,-0.2273,0,0,0,-0.2037,-0.2067,-0.2092,-0.2116,-0.2127,-0.2195,-0.215,-0.2158,-0.2147,-0.2125,-0.2238,-0.2241,-0.2275,-0.2254,-0.227,-0.2108,-0.2108,0,0,-0.2047,-0.2066,-0.2082,-0.2108,-0.2148,-0.2186,-0.2254,-0.2209,-0.2201,-0.223,-0.2233,-0.2282,-0.2257,-0.2272,-0.2317,-0.231,0,0,0,-0.2066,-0.206,-0.208,-0.2104,-0.2179,-0.2252,-0.2259,-0.2289,-0.2323,-0.2221,-0.2344,-0.2327,-0.2334,-0.2233,-0.223,-0.2167,-0.2258,-0.2258,-0.2257,-0.1972,-0.2024,-0.2034,-0.2109,-0.2178,-0.2293,-0.2353,-0.241,-0.239,-0.2443,-0.241,-0.2512,-0.2411,-0.2405,-0.2345,-0.2484,-0.2484,-0.2484,-0.2485,-0.1911,-0.1912,-0.199,-0.2015,-0.2155,-0.2235,-0.243,-0.2464,-0.255,-0.2533,-0.2538,-0.2343,-0.2402,-0.234,-0.2488,-0.2488,-0.2487,-0.2487,-0.2487,-0.1797,-0.1822,-0.183,-0.1905,-0.2025,-0.2206,-0.2355,-0.249,-0.2549,-0.2586,-0.2452,-0.2449,-0.2346,-0.2584,-0.2584,-0.2584,-0.2584,-0.2584,-0.2584,-0.1692,-0.172,-0.1714,-0.1813,-0.1884,-0.2058,-0.2312,-0.2388,-0.2449,-0.2473,-0.2471,-0.2382,-0.2541,-0.2482,-0.2585,-0.2585,-0.2585,-0.2585,-0.2585,-0.1588,-0.1596,-0.1587,-0.1629,-0.181,-0.1933,-0.2181,-0.2275,-0.2352,-0.2323,-0.2262,-0.2415,-0.2369,-0.2371,-0.2309,-0.2361,-0.2361,-0.2361,-0.2361,-0.1509,-0.1519,-0.1488,-0.1546,-0.1694,-0.1886,-0.1946,-0.2036,-0.2088,-0.2066,-0.2141,-0.2088,-0.2099,-0.2037,-0.2046,-0.1978,-0.1946,-0.1945,-0.1945,-0.1448,-0.1445,-0.1401,-0.1454,-0.1628,-0.1785,-0.177,-0.1778,-0.1855,-0.193,-0.2095,-0.2112,-0.2041,-0.2064,-0.1971,-0.1988,-0.1878,0,0]},{"header":{"parameterUnit":"m.s-1","parameterCategory":2,"la1":30.2992,"la2":30.254,"lo1":-89.0895,"lo2":-89.0443,"dy":0.0025,"dx":0.0025,"nx":19,"ny":19,"refTime":"2026-04-02T21:00:00:Z","depth":"0","parameterNumber":3,"parameterNumberName":"V-component_of_CURRENTS"},"data":[0,0,0,-0.0063,-0.0062,-0.0002,-0.0002,0.014,0.0141,0,0,0,0,0,0,0,0,0,0,0,-0.0082,-0.0082,-0.0063,-0.0062,-0.0002,-0.0002,0.0139,0.0141,0,0,0,0,0,0,0,0,0,0,0,-0.0082,-0.0082,-0.0082,-0.0062,-0.0002,-0.0002,0.0139,0.0082,0,0,0,0,0,0,0,0,0,0,0.0018,-0.0022,-0.0082,-0.0082,-0.0062,-0.0002,-0.0002,0.0079,0.0086,0.0125,0,0.0122,0,0.0128,0.015,0.0151,0,0,0,-0.0044,-0.0028,-0.0009,-0.0082,-0.0061,-0.0003,-0.0024,0.0082,0.009,0.0135,0.0124,0.0129,0.0131,0.0151,0.0152,0.0306,0.0306,0,0,-0.0048,-0.0068,-0.0015,-0.0005,-0.006,-0.0026,-0.0023,0.0086,0.0088,0.0125,0.0132,0.0133,0.0152,0.0153,0.0305,0.0306,0,0,0,-0.0069,-0.007,-0.0054,-0.001,-0.0008,-0.0025,-0.0021,0.0084,0.0089,0.0134,0.0135,0.0153,0.0154,0.0304,0.0305,0.0274,0,0,0,-0.007,-0.0084,-0.0056,-0.0067,-0.0011,0.0027,-0.0026,0.0082,0.0094,0.0134,0.0153,0.0156,0.0303,0.0305,0.0273,0.0219,0,0,0,-0.0082,-0.0085,-0.0082,-0.0068,-0.005,0.0026,0.0038,0.0084,0.0094,0.0151,0.0156,0.0303,0.0304,0.0272,0.022,0.0279,0,0,0,-0.0098,-0.0133,-0.0083,-0.0118,-0.0051,-0.0017,0.0037,0.0072,0.0113,0.0153,0.0304,0.0305,0.0272,0.022,0.0278,0.0213,0.0211,0,0,-0.0158,-0.0141,-0.0162,-0.0116,-0.0114,-0.0023,0.0027,0.0101,0.0159,0.0274,0.0277,0.0273,0.022,0.0279,0.0302,0.0296,0,0,0,-0.0191,-0.0202,-0.0192,-0.0179,-0.0127,-0.0045,0.0048,0.0126,0.0237,0.0189,0.0314,0.0281,0.0319,0.0281,0.0277,0.0449,0.0312,0.0312,0.0312,-0.0279,-0.0255,-0.0275,-0.0223,-0.0182,-0.0043,0.0046,0.018,0.0236,0.0298,0.0287,0.0345,0.0305,0.0301,0.048,0.0345,0.0345,0.0345,0.0345,-0.036,-0.0376,-0.0323,-0.0333,-0.0225,-0.0158,0.0053,0.014,0.0307,0.0323,0.0365,0.0286,0.0294,0.0488,0.0344,0.0344,0.0344,0.0344,0.0345,-0.0413,-0.0421,-0.0416,-0.041,-0.0358,-0.0227,-0.0116,0.0059,0.024,0.029,0.0299,0.0298,0.0442,0.0329,0.0329,0.0329,0.0329,0.0329,0.0329,-0.0473,-0.047,-0.0501,-0.0487,-0.0489,-0.0421,-0.0206,-0.0077,0.0124,0.0243,0.0244,0.0487,0.0341,0.0312,0.0329,0.0329,0.0329,0.0329,0.0329,-0.0554,-0.0541,-0.0599,-0.0618,-0.0615,-0.059,-0.0401,-0.0164,0.0017,0.0101,0.044,0.026,0.0267,0.027,0.0241,0.024,0.024,0.024,0.024,-0.0604,-0.0603,-0.0682,-0.0732,-0.0737,-0.0666,-0.0551,-0.0289,0.0159,0.039,0.0505,0.0515,0.0511,0.0536,0.0533,0.0512,0.058,0.058,0.0581,-0.0653,-0.0671,-0.0741,-0.0782,-0.0805,-0.0742,-0.066,-0.0397,0.0268,0.0619,0.0767,0.0752,0.0793,0.0772,0.0828,0.081,0.078,0,0]}],[{"header":{"parameterUnit":"m.s-1","parameterCategory":2,"la1":30.2992,"la2":30.254,"lo1":-89.0895,"lo2":-89.0443,"dy":0.0025,"dx":0.0025,"nx":19,"ny":19,"refTime":"2026-04-02T21:00:00:Z","depth":"2","parameterNumber":2,"parameterNumberName":"U-component_of_CURRENTS"},"data":[0,0,0,-0.1847,-0.1852,-0.2023,-0.2023,-0.1986,-0.1985,0,0,0,0,0,0,0,0,0,0,0,-0.1753,-0.1755,-0.1847,-0.1853,-0.2023,-0.2023,-0.1986,-0.1985,0,0,0,0,0,0,0,0,0,0,0,-0.1753,-0.1755,-0.1757,-0.1854,-0.2023,-0.2023,-0.1986,-0.1908,0,0,0,0,0,0,0,0,0,0,-0.1769,-0.1725,-0.1754,-0.1757,-0.1855,-0.2023,-0.2023,-0.1906,-0.1912,-0.1852,0,-0.1902,0,-0.1977,-0.1982,-0.1981,0,0,0,-0.18,-0.172,-0.1796,-0.1757,-0.1858,-0.2023,-0.1931,-0.1911,-0.1918,-0.1859,-0.1903,-0.1905,-0.1977,-0.1981,-0.1981,-0.2028,-0.2029,0,0,-0.179,-0.1744,-0.1793,-0.1802,-0.1929,-0.1926,-0.1937,-0.1918,-0.1912,-0.1903,-0.1906,-0.1976,-0.1981,-0.1981,-0.2027,-0.2028,0,0,0,-0.1799,-0.1737,-0.1817,-0.18,-0.1872,-0.1933,-0.1945,-0.1911,-0.1948,-0.1906,-0.1976,-0.1981,-0.198,-0.2026,-0.2027,-0.2022,0,0,0,-0.1791,-0.1748,-0.1813,-0.1781,-0.1875,-0.1929,-0.1938,-0.1948,-0.1951,-0.1976,-0.1981,-0.1979,-0.2025,-0.2027,-0.202,-0.2022,0,0,0,-0.1741,-0.1742,-0.1778,-0.1779,-0.1887,-0.1933,-0.1966,-0.1951,-0.1994,-0.1981,-0.1979,-0.2024,-0.2026,-0.2018,-0.2019,-0.2022,0,0,0,-0.1663,-0.1732,-0.1776,-0.1853,-0.1886,-0.1981,-0.1967,-0.2006,-0.1998,-0.198,-0.2025,-0.2027,-0.2018,-0.2018,-0.202,-0.1875,-0.1869,0,0,-0.1711,-0.1736,-0.1781,-0.1828,-0.1893,-0.1952,-0.2011,-0.1997,-0.201,-0.2001,-0.2004,-0.2021,-0.2019,-0.2021,-0.1999,-0.1989,0,0,0,-0.177,-0.1775,-0.1806,-0.1857,-0.1945,-0.1989,-0.2022,-0.2049,-0.2072,-0.2034,-0.2066,-0.2067,-0.2067,-0.1978,-0.1972,-0.2037,-0.2037,-0.2037,-0.2037,-0.1694,-0.1753,-0.1784,-0.1848,-0.1906,-0.2004,-0.2046,-0.2093,-0.2086,-0.2123,-0.2095,-0.2141,-0.205,-0.2042,-0.2132,-0.2132,-0.2132,-0.2132,-0.2132,-0.1671,-0.1682,-0.1733,-0.178,-0.1859,-0.1911,-0.2046,-0.2083,-0.2152,-0.2155,-0.2154,-0.202,-0.2034,-0.2133,-0.2133,-0.2133,-0.2133,-0.2133,-0.2133,-0.1565,-0.159,-0.1617,-0.1681,-0.1747,-0.187,-0.1969,-0.2076,-0.2136,-0.2163,-0.2059,-0.2056,-0.2107,-0.2155,-0.2155,-0.2155,-0.2155,-0.2155,-0.2155,-0.1463,-0.15,-0.1509,-0.159,-0.1633,-0.1744,-0.1937,-0.2,-0.2041,-0.2057,-0.2055,-0.2149,-0.2148,-0.2111,-0.2156,-0.2156,-0.2156,-0.2156,-0.2156,-0.1369,-0.139,-0.1398,-0.143,-0.1543,-0.1586,-0.1787,-0.1861,-0.1938,-0.1908,-0.1991,-0.1995,-0.1979,-0.1983,-0.1943,-0.1943,-0.1943,-0.1943,-0.1943,-0.1292,-0.1312,-0.1304,-0.1338,-0.1411,-0.1515,-0.1523,-0.1595,-0.1704,-0.1714,-0.1724,-0.1676,-0.1688,-0.1656,-0.1667,-0.1621,-0.1536,-0.1536,-0.1535,-0.1233,-0.1242,-0.1209,-0.1256,-0.1336,-0.1391,-0.1327,-0.1304,-0.1384,-0.1522,-0.1686,-0.1909,-0.1863,-0.1874,-0.1845,-0.1856,-0.1789,0,0]},{"header":{"parameterUnit":"m.s-1","parameterCategory":2,"la1":30.2992,"la2":30.254,"lo1":-89.0895,"lo2":-89.0443,"dy":0.0025,"dx":0.0025,"nx":19,"ny":19,"refTime":"2026-04-02T21:00:00:Z","depth":"2","parameterNumber":3,"parameterNumberName":"V-component_of_CURRENTS"},"data":[0,0,0,-0.0137,-0.0136,-0.0056,-0.0055,0.0095,0.0097,0,0,0,0,0,0,0,0,0,0,0,-0.0165,-0.0165,-0.0137,-0.0136,-0.0056,-0.0055,0.0095,0.0097,0,0,0,0,0,0,0,0,0,0,0,-0.0165,-0.0165,-0.0164,-0.0135,-0.0056,-0.0055,0.0095,0.0027,0,0,0,0,0,0,0,0,0,0,-0.0055,-0.0096,-0.0165,-0.0164,-0.0135,-0.0056,-0.0055,0.0024,0.0031,0.0067,0,0.0066,0,0.0078,0.0106,0.0106,0,0,0,-0.0116,-0.0103,-0.0083,-0.0164,-0.0135,-0.0056,-0.0086,0.0028,0.0037,0.0077,0.0068,0.0073,0.008,0.0107,0.0108,0.0216,0.0216,0,0,-0.0121,-0.0142,-0.0089,-0.0078,-0.013,-0.0089,-0.0084,0.0033,0.0037,0.0068,0.0076,0.0083,0.0108,0.0109,0.0215,0.0216,0,0,0,-0.0146,-0.0145,-0.0128,-0.0084,-0.0077,-0.0087,-0.0081,0.0032,0.0036,0.0078,0.0084,0.0109,0.011,0.0215,0.0216,0.0136,0,0,0,-0.0148,-0.0161,-0.0131,-0.0141,-0.008,-0.0029,-0.0085,0.0029,0.0042,0.0084,0.0109,0.0112,0.0215,0.0215,0.0137,0.0092,0,0,0,-0.0165,-0.0163,-0.0159,-0.0143,-0.0117,-0.0031,-0.0019,0.0032,0.0045,0.0107,0.0112,0.0215,0.0215,0.0139,0.0096,0.0109,0,0,0,-0.018,-0.0206,-0.016,-0.018,-0.0118,-0.008,-0.0019,0.0028,0.0075,0.0109,0.0215,0.0216,0.0139,0.0098,0.011,0.0095,0.0086,0,0,-0.0227,-0.0212,-0.0224,-0.0182,-0.0172,-0.0088,-0.0063,0.0025,0.0095,0.0183,0.0186,0.0137,0.0096,0.0109,0.0113,0.0103,0,0,0,-0.0248,-0.0255,-0.0242,-0.0225,-0.0175,-0.0129,-0.0036,0.002,0.0107,0.0121,0.0166,0.0143,0.0154,0.0149,0.0142,0.0217,0.0217,0.0217,0.0217,-0.0329,-0.0303,-0.0315,-0.0273,-0.0243,-0.0144,-0.0094,0.0002,0.0077,0.0109,0.0099,0.0082,0.0076,0.0071,0.0131,0.0131,0.0131,0.0131,0.013,-0.0399,-0.0413,-0.0372,-0.0375,-0.0313,-0.0277,-0.0152,-0.0085,0.0018,0.0069,0.0084,0.0091,0.0058,0.0125,0.0126,0.0127,0.0127,0.0128,0.0128,-0.0453,-0.0461,-0.0452,-0.0455,-0.044,-0.0362,-0.033,-0.0207,-0.0068,-0.0049,0.0003,0.0004,0.003,-0.0022,-0.0022,-0.0023,-0.0023,-0.0023,-0.0023,-0.0518,-0.0511,-0.0539,-0.0536,-0.0551,-0.0537,-0.0416,-0.0343,-0.0189,-0.0082,-0.0081,0.0031,0.0036,0.0024,-0.0025,-0.0025,-0.0025,-0.0024,-0.0024,-0.06,-0.0582,-0.0635,-0.0657,-0.0688,-0.0709,-0.06,-0.0438,-0.0316,-0.0242,-0.0079,-0.0077,-0.0045,-0.0038,-0.005,-0.0115,-0.0115,-0.0115,-0.0115,-0.0653,-0.0649,-0.0719,-0.0775,-0.0818,-0.0792,-0.0736,-0.0534,-0.0292,-0.0158,-0.0156,-0.0139,-0.0134,-0.0105,-0.0096,-0.0109,-0.0189,-0.0189,-0.0189,-0.0709,-0.0719,-0.0787,-0.0824,-0.088,-0.0874,-0.0814,-0.0569,-0.0248,-0.0192,-0.0165,-0.0121,-0.009,-0.0085,-0.0031,-0.0021,-0.0037,0,0]}],[{"header":{"parameterUnit":"m.s-1","parameterCategory":2,"la1":30.2992,"la2":30.254,"lo1":-89.0895,"lo2":-89.0443,"dy":0.0025,"dx":0.0025,"nx":19,"ny":19,"refTime":"2026-04-02T21:00:00:Z","depth":"4","parameterNumber":2,"parameterNumberName":"U-component_of_CURRENTS"},"data":[0,0,0,-0.0939,-0.0938,-0.0882,-0.0882,-0.0979,-0.098,0,0,0,0,0,0,0,0,0,0,0,-0.0968,-0.0968,-0.0939,-0.0938,-0.0882,-0.0882,-0.0978,-0.098,0,0,0,0,0,0,0,0,0,0,0,-0.0968,-0.0968,-0.0968,-0.0938,-0.0882,-0.0882,-0.0978,-0.0979,0,0,0,0,0,0,0,0,0,0,-0.1013,-0.1023,-0.0968,-0.0968,-0.0937,-0.0882,-0.0882,-0.0978,-0.098,-0.1051,0,-0.1041,0,-0.1012,-0.099,-0.099,0,0,0,-0.0942,-0.1021,-0.0996,-0.0968,-0.0937,-0.0882,-0.0908,-0.0977,-0.098,-0.1054,-0.1042,-0.1044,-0.1014,-0.0991,-0.0992,-0.1286,-0.1288,0,0,-0.0945,-0.0973,-0.0994,-0.0997,-0.0926,-0.091,-0.0907,-0.0977,-0.0992,-0.1042,-0.1046,-0.1015,-0.0992,-0.0993,-0.1284,-0.1287,0,0,0,-0.0951,-0.0976,-0.0945,-0.0995,-0.097,-0.0909,-0.0904,-0.0989,-0.0975,-0.1046,-0.1016,-0.0993,-0.0995,-0.1282,-0.1285,-0.1258,0,0,0,-0.0953,-0.0978,-0.0946,-0.0965,-0.0968,-0.0958,-0.0915,-0.097,-0.0976,-0.1016,-0.0993,-0.0996,-0.1279,-0.1283,-0.1253,-0.1241,0,0,0,-0.097,-0.098,-0.0971,-0.0966,-0.0937,-0.0955,-0.0945,-0.097,-0.0959,-0.0991,-0.0996,-0.1278,-0.1283,-0.125,-0.1236,-0.1223,0,0,0,-0.1004,-0.1001,-0.0972,-0.0996,-0.0937,-0.1006,-0.0943,-0.1008,-0.1048,-0.0994,-0.128,-0.1285,-0.1248,-0.1233,-0.1221,-0.1023,0,0,0,-0.1015,-0.1003,-0.1025,-0.0997,-0.1064,-0.1013,-0.1106,-0.112,-0.1152,-0.1263,-0.1268,-0.1255,-0.1236,-0.1222,-0.1325,0,0,0,0,-0.1041,-0.1063,-0.1082,-0.1116,-0.1146,-0.1166,-0.1192,-0.1199,-0.1273,-0.1194,-0.1366,-0.1357,-0.1346,-0.1233,-0.1309,-0.1309,-0.1308,-0.1307,-0.1307,-0.1062,-0.1103,-0.1164,-0.1221,-0.1272,-0.1309,-0.1326,-0.1365,-0.1383,-0.1435,-0.1416,-0.1504,-0.1396,-0.1513,-0.1513,-0.1513,-0.1513,-0.1513,-0.1513,-0.1105,-0.1124,-0.1221,-0.1291,-0.1337,-0.1415,-0.1453,-0.1447,-0.1497,-0.1507,-0.1496,-0.1318,-0.1513,-0.1513,-0.1513,-0.1513,-0.1513,-0.1513,-0.1513,-0.1099,-0.1103,-0.1188,-0.1292,-0.1363,-0.1418,-0.1406,-0.1455,-0.1495,-0.1505,-0.1382,-0.15,-0.1403,-0.1496,-0.1496,-0.1495,-0.1495,-0.1495,-0.1495,-0.1005,-0.1093,-0.1163,-0.1273,-0.1303,-0.1323,-0.1369,-0.136,-0.1419,-0.1364,-0.1503,-0.1498,-0.1498,-0.1408,-0.1495,-0.1495,-0.1495,-0.1495,-0.1495,-0.0902,-0.0992,-0.1075,-0.1129,-0.1184,-0.1172,-0.124,-0.1205,-0.1193,-0.1176,-0.1279,-0.129,-0.127,-0.1276,-0.1175,-0.1196,-0.1193,-0.1191,0,-0.0814,-0.0872,-0.0986,-0.103,-0.1011,-0.1065,-0.0976,-0.0992,-0.107,-0.1056,-0.1208,-0.1325,-0.1332,-0.1312,-0.1314,-0.1198,0,0,0,-0.0719,-0.08,-0.0828,-0.0952,-0.0926,-0.0892,-0.0936,-0.0907,-0.1081,-0.1001,-0.1133,-0.1148,-0.1312,-0.1492,-0.1488,-0.1489,-0.1342,0,0]},{"header":{"parameterUnit":"m.s-1","parameterCategory":2,"la1":30.2992,"la2":30.254,"lo1":-89.0895,"lo2":-89.0443,"dy":0.0025,"dx":0.0025,"nx":19,"ny":19,"refTime":"2026-04-02T21:00:00:Z","depth":"4","parameterNumber":3,"parameterNumberName":"V-component_of_CURRENTS"},"data":[0,0,0,-0.0072,-0.007,0.0044,0.0045,0.0142,0.0142,0,0,0,0,0,0,0,0,0,0,0,-0.0123,-0.0122,-0.0072,-0.007,0.0044,0.0045,0.0141,0.0142,0,0,0,0,0,0,0,0,0,0,0,-0.0123,-0.0122,-0.0122,-0.007,0.0044,0.0045,0.0141,0.007,0,0,0,0,0,0,0,0,0,0,-0.0033,-0.007,-0.0123,-0.0122,-0.0069,0.0044,0.0045,0.0067,0.0075,0.0072,0,0.0076,0,0.011,0.0146,0.0147,0,0,0,-0.0058,-0.0075,-0.0053,-0.0122,-0.0068,0.0044,-0.0004,0.0072,0.008,0.0081,0.0078,0.0082,0.0111,0.0147,0.0147,0.0128,0.0127,0,0,-0.0064,-0.0089,-0.0059,-0.0049,-0.0057,-0.0008,-0.0001,0.0077,0.0081,0.0078,0.0085,0.0113,0.0147,0.0148,0.0128,0.0127,0,0,0,-0.009,-0.0094,-0.0072,-0.0054,-0.0029,-0.0005,0.0004,0.0078,0.0083,0.0086,0.0114,0.0148,0.0148,0.0129,0.0128,0.0037,0,0,0,-0.0094,-0.011,-0.0075,-0.0087,-0.0031,0.0035,0.0002,0.0077,0.0088,0.0114,0.0148,0.0149,0.013,0.0128,0.0041,-0.0005,0,0,0,-0.0125,-0.0112,-0.0107,-0.0089,-0.0044,0.0035,0.0045,0.0081,0.0104,0.0147,0.0149,0.013,0.0129,0.0045,0.0001,-0.0033,0,0,0,-0.0142,-0.0147,-0.0108,-0.0099,-0.0046,-0.0015,0.0046,0.0087,0.0118,0.0148,0.013,0.0128,0.0046,0.0005,-0.0029,0.0003,0,0,0,-0.0161,-0.015,-0.0143,-0.0106,-0.0102,-0.0029,-0.0038,0.0036,0.0089,0.0105,0.0105,0.004,0.0002,-0.0032,-0.0093,0,0,0,0,-0.0156,-0.0166,-0.0153,-0.0138,-0.01,-0.0097,-0.0024,-0.001,0.0016,0.0099,0.0032,0.0011,-0.0008,0.0022,0.012,0.012,0.012,0.0121,0.0121,-0.0229,-0.0204,-0.0216,-0.0197,-0.0185,-0.0146,-0.0143,-0.0117,-0.005,-0.0064,-0.0069,-0.0167,-0.0141,-0.0071,-0.0071,-0.0072,-0.0072,-0.0072,-0.0073,-0.0286,-0.0294,-0.0285,-0.0291,-0.0287,-0.0294,-0.0273,-0.0237,-0.0241,-0.0175,-0.0187,-0.0084,-0.0082,-0.008,-0.0079,-0.0078,-0.0077,-0.0076,-0.0076,-0.0342,-0.0345,-0.0348,-0.0375,-0.0407,-0.0385,-0.0429,-0.0389,-0.0328,-0.0344,-0.0276,-0.0228,-0.0212,-0.0332,-0.0333,-0.0333,-0.0334,-0.0334,-0.0334,-0.0389,-0.0396,-0.0438,-0.0461,-0.0488,-0.0516,-0.0514,-0.0508,-0.0445,-0.0385,-0.0359,-0.0254,-0.0246,-0.0227,-0.034,-0.0339,-0.0338,-0.0338,-0.0337,-0.0434,-0.0446,-0.0511,-0.0548,-0.0606,-0.062,-0.0625,-0.0568,-0.0564,-0.051,-0.0399,-0.0394,-0.0354,-0.0343,-0.0325,-0.0472,-0.0472,-0.0473,0,-0.0468,-0.0477,-0.0575,-0.0645,-0.0695,-0.0685,-0.0669,-0.0638,-0.0547,-0.0526,-0.0564,-0.0443,-0.0436,-0.0393,-0.0383,-0.0364,0,0,0,-0.0498,-0.0529,-0.0606,-0.0675,-0.0727,-0.0677,-0.066,-0.0628,-0.0551,-0.0525,-0.0473,-0.0473,-0.0429,-0.0358,-0.0285,-0.0274,-0.024,0,0]}]]